Simultaneous Nadir Overpasses (SNOs) Predictions

Prediction of SNOs between GOES-16 and METOP-B Satellite Orbit:

Table of predicted SNOs for the next 14.0 days since TLE Epoch: 6/16/2017
Index Date Time (GOES-16) GOES-16 Lat,Lon METOP-B Lat,Lon Distance(km) Time Diff (sec)
1 06/16/2017 15:35:09 0.00, -89.52 0.38, -91.33 206.01 80
2 06/17/2017 15:17:09 0.00, -89.53 -0.70, -86.33 364.34 80
3 06/19/2017 03:36:08 -0.01, -89.53 -0.32, -90.93 158.81 80
4 06/20/2017 03:12:49 -0.01, -89.54 0.82, -85.94 411.43 80
5 06/21/2017 15:31:40 0.01, -89.57 0.19, -90.50 105.47 80
6 06/22/2017 15:13:40 0.01, -89.58 -0.90, -85.50 464.91 80
7 06/24/2017 03:32:39 -0.01, -89.59 -0.13, -90.10 58.12 80
8 06/26/2017 15:28:11 0.00, -89.63 -0.01, -89.67 5.02 80
9 06/29/2017 03:26:30 0.00, -89.66 0.07, -89.27 44.53 80




NCC Satellite Simultaneous Nadir Overpasses (SNOs) Prediction Service
